| time (UTC) | temp F | wind direction | speed MPH | gust MPH | rain 1hr in | rain 24hr in | rain mn in | humidity % | barometer mb |
| 20260831081513 | 83 | 202 | 2.0 | 7.0 | 0.00 | 0.03 | 0.00 | 82 | 1012.5 |
| 20260831080009 | 83 | 194 | 3.0 | 7.0 | 0.00 | 0.03 | 0.00 | 82 | 1012.6 |
| 20260831074507 | 83 | 196 | 3.0 | 8.0 | 0.00 | 0.03 | 0.00 | 82 | 1012.8 |
| 20260831073005 | 84 | 188 | 3.0 | 8.0 | 0.00 | 0.03 | 0.00 | 81 | 1012.9 |
| 20260831071510 | 84 | 198 | 4.0 | 9.0 | 0.00 | 0.03 | 0.00 | 81 | 1013.1 |
| 20260831070001 | 84 | 184 | 5.0 | 10.0 | 0.00 | 0.03 | 0.00 | 80 | 1013.2 |
| 20260831064600 | 84 | 199 | 4.0 | 10.0 | 0.00 | 0.03 | 0.00 | 80 | 1013.2 |
| 20260831063058 | 84 | 192 | 5.0 | 10.0 | 0.00 | 0.03 | 0.00 | 80 | 1013.3 |
| 20260831061557 | 84 | 194 | 3.0 | 10.0 | 0.00 | 0.03 | 0.00 | 80 | 1013.3 |
| 20260831060056 | 84 | 207 | 5.0 | 9.0 | 0.00 | 0.03 | 0.00 | 80 | 1013.4 |
| 20260831054557 | 84 | 227 | 5.0 | 10.0 | 0.00 | 0.03 | 0.00 | 81 | 1013.5 |
| 20260831053053 | 85 | 196 | 5.0 | 12.0 | 0.00 | 0.03 | 0.00 | 80 | 1013.3 |
| 20260831051553 | 85 | 180 | 4.0 | 10.0 | 0.00 | 0.03 | 0.00 | 80 | 1013.5 |
| 20260831050049 | 85 | 177 | 3.0 | 8.0 | 0.00 | 0.03 | 0.00 | 79 | 1013.5 |
| 20260831044600 | 85 | 189 | 5.0 | 11.0 | 0.00 | 0.03 | 0.03 | 79 | 1013.5 |
| 20260831043048 | 85 | 169 | 7.0 | 11.0 | 0.00 | 0.03 | 0.03 | 80 | 1013.6 |
| 20260831041558 | 86 | 159 | 6.0 | 14.0 | 0.00 | 0.03 | 0.03 | 80 | 1013.5 |
| 20260831040047 | 86 | 160 | 6.0 | 12.0 | 0.00 | 0.03 | 0.03 | 79 | 1013.3 |
| 20260831034549 | 86 | 171 | 5.0 | 10.0 | 0.00 | 0.03 | 0.03 | 79 | 1013.2 |
| 20260831033045 | 85 | 144 | 4.0 | 10.0 | 0.00 | 0.03 | 0.03 | 79 | 1013.0 |
| 20260831031544 | 86 | 164 | 4.0 | 12.0 | 0.00 | 0.03 | 0.03 | 80 | 1013.0 |
| 20260831030045 | 86 | 168 | 5.0 | 11.0 | 0.00 | 0.03 | 0.03 | 80 | 1012.8 |
| 20260831024544 | 86 | 144 | 5.0 | 10.0 | 0.00 | 0.03 | 0.03 | 80 | 1012.4 |
| 20260831023042 | 86 | 199 | 5.0 | 12.0 | 0.00 | 0.03 | 0.03 | 79 | 1012.4 |
| 20260831021542 | 86 | 195 | 5.0 | 12.0 | 0.00 | 0.03 | 0.03 | 79 | 1012.2 |
| 20260831020041 | 86 | 152 | 5.0 | 13.0 | 0.00 | 0.03 | 0.03 | 79 | 1012.0 |
| 20260831014543 | 87 | 142 | 7.0 | 12.0 | 0.00 | 0.03 | 0.03 | 79 | 1011.9 |
| 20260831013042 | 87 | 130 | 7.0 | 13.0 | 0.00 | 0.03 | 0.03 | 78 | 1011.8 |
| 20260831011538 | 87 | 136 | 7.0 | 14.0 | 0.00 | 0.03 | 0.03 | 77 | 1011.7 |
| 20260831010042 | 87 | 182 | 6.0 | 12.0 | 0.00 | 0.03 | 0.03 | 76 | 1011.5 |
| 20260831004538 | 87 | 176 | 7.0 | 14.0 | 0.00 | 0.03 | 0.03 | 74 | 1011.5 |
| 20260831003037 | 88 | 145 | 7.0 | 14.0 | 0.00 | 0.03 | 0.03 | 73 | 1011.4 |
| 20260831001537 | 88 | 162 | 8.0 | 15.0 | 0.00 | 0.03 | 0.03 | 73 | 1011.3 |
| 20260831000036 | 89 | 201 | 7.0 | 17.0 | 0.00 | 0.03 | 0.03 | 73 | 1011.2 |
| 20260830234551 | 89 | 124 | 9.0 | 16.0 | 0.00 | 0.03 | 0.03 | 72 | 1011.3 |
| 20260830233034 | 90 | 153 | 8.0 | 16.0 | 0.00 | 0.03 | 0.03 | 71 | 1011.2 |
| 20260830231534 | 90 | 186 | 8.0 | 18.0 | 0.00 | 0.03 | 0.03 | 69 | 1011.3 |
| 20260830230033 | 90 | 154 | 9.0 | 16.0 | 0.00 | 0.03 | 0.03 | 70 | 1011.3 |
| 20260830224533 | 91 | 133 | 6.0 | 14.0 | 0.00 | 0.03 | 0.03 | 69 | 1011.3 |
| 20260830223037 | 92 | 170 | 9.0 | 14.0 | 0.00 | 0.03 | 0.03 | 67 | 1011.2 |
| 20260830221535 | 92 | 128 | 8.0 | 16.0 | 0.00 | 0.03 | 0.03 | 65 | 1011.2 |
| 20260830220031 | 92 | 108 | 5.0 | 15.0 | 0.00 | 0.03 | 0.03 | 64 | 1011.2 |
| 20260830214530 | 92 | 132 | 9.0 | 14.0 | 0.00 | 0.03 | 0.03 | 64 | 1011.3 |
| 20260830213028 | 93 | 153 | 5.0 | 14.0 | 0.00 | 0.03 | 0.03 | 65 | 1011.4 |
| 20260830211529 | 93 | 144 | 6.0 | 12.0 | 0.00 | 0.03 | 0.03 | 65 | 1011.5 |
| 20260830210025 | 93 | 155 | 6.0 | 15.0 | 0.00 | 0.03 | 0.03 | 65 | 1011.7 |
| 20260830204522 | 93 | 121 | 5.0 | 13.0 | 0.00 | 0.03 | 0.03 | 66 | 1012.0 |
| 20260830203039 | 93 | 148 | 5.0 | 12.0 | 0.00 | 0.03 | 0.03 | 67 | 1012.2 |
| 20260830201517 | 92 | 99 | 4.0 | 13.0 | 0.00 | 0.03 | 0.03 | 71 | 1012.4 |
| 20260830200019 | 92 | 142 | 5.0 | 12.0 | 0.00 | 0.03 | 0.03 | 71 | 1012.6 |
| 20260830194511 | 92 | 47 | 6.0 | 12.0 | 0.00 | 0.03 | 0.03 | 69 | 1012.8 |
| 20260830193009 | 92 | 153 | 6.0 | 16.0 | 0.00 | 0.03 | 0.03 | 70 | 1013.2 |
| 20260830191509 | 91 | 107 | 6.0 | 14.0 | 0.01 | 0.03 | 0.03 | 72 | 1013.4 |
| 20260830190005 | 89 | 155 | 6.0 | 13.0 | 0.01 | 0.03 | 0.03 | 77 | 1013.5 |
| 20260830184511 | 87 | 81 | 4.0 | 10.0 | 0.01 | 0.03 | 0.03 | 82 | 1013.7 |
| 20260830183003 | 85 | 85 | 2.0 | 8.0 | 0.03 | 0.03 | 0.03 | 81 | 1013.8 |
| 20260830181503 | 84 | 138 | 7.0 | 13.0 | 0.02 | 0.02 | 0.02 | 74 | 1014.0 |
| 20260830180002 | 85 | 22 | 9.0 | 16.0 | 0.02 | 0.02 | 0.02 | 80 | 1014.3 |
| 20260830174502 | 87 | 153 | 5.0 | 11.0 | 0.02 | 0.02 | 0.02 | 81 | 1014.4 |
| 20260830173115 | 88 | 118 | 3.0 | 10.0 | 0.00 | 0.00 | 0.00 | 78 | 1014.2 |
| 20260830171603 | 89 | 76 | 6.0 | 11.0 | 0.00 | 0.00 | 0.00 | 77 | 1014.2 |
| 20260830170057 | 89 | 159 | 3.0 | 12.0 | 0.00 | 0.00 | 0.00 | 78 | 1014.5 |
| 20260830164557 | 88 | 89 | 4.0 | 10.0 | 0.00 | 0.00 | 0.00 | 79 | 1014.7 |
| 20260830163056 | 90 | 123 | 2.0 | 11.0 | 0.00 | 0.00 | 0.00 | 73 | 1014.7 |
| 20260830161555 | 92 | 151 | 4.0 | 7.0 | 0.00 | 0.00 | 0.00 | 68 | 1014.6 |
| 20260830160054 | 93 | 172 | 5.0 | 10.0 | 0.00 | 0.00 | 0.00 | 65 | 1014.6 |
| 20260830154551 | 93 | 190 | 4.0 | 11.0 | 0.00 | 0.00 | 0.00 | 65 | 1014.6 |
| 20260830153045 | 92 | 159 | 3.0 | 14.0 | 0.00 | 0.00 | 0.00 | 65 | 1014.6 |
| 20260830151541 | 91 | 188 | 4.0 | 9.0 | 0.00 | 0.00 | 0.00 | 67 | 1014.6 |
| 20260830150043 | 90 | 188 | 2.0 | 9.0 | 0.00 | 0.00 | 0.00 | 69 | 1014.6 |
| 20260830144539 | 90 | 155 | 3.0 | 9.0 | 0.00 | 0.00 | 0.00 | 70 | 1014.5 |
| 20260830143039 | 89 | 213 | 3.0 | 8.0 | 0.00 | 0.00 | 0.00 | 72 | 1014.5 |
| 20260830141530 | 88 | 153 | 1.0 | 7.0 | 0.00 | 0.00 | 0.00 | 74 | 1014.4 |
| 20260830140027 | 87 | 180 | 3.0 | 7.0 | 0.00 | 0.00 | 0.00 | 75 | 1014.3 |
| 20260830134529 | 86 | 139 | 2.0 | 6.0 | 0.00 | 0.00 | 0.00 | 78 | 1014.1 |
| 20260830133020 | 85 | 153 | 1.0 | 6.0 | 0.00 | 0.00 | 0.00 | 81 | 1014.0 |
| 20260830131529 | 83 | 151 | 0.0 | 5.0 | 0.00 | 0.00 | 0.00 | 84 | 1014.0 |
| 20260830130018 | 82 | 167 | 0.0 | 2.0 | 0.00 | 0.00 | 0.00 | 86 | 1013.9 |
| 20260830124517 | 81 | 174 | 0.0 | 0.0 | 0.00 | 0.00 | 0.00 | 87 | 1013.7 |
| 20260830123017 | 81 | 174 | 0.0 | 1.0 | 0.00 | 0.00 | 0.00 | 87 | 1013.6 |
| 20260830121516 | 81 | 174 | 0.0 | 0.0 | 0.00 | 0.00 | 0.00 | 87 | 1013.5 |
| 20260830120016 | 81 | 174 | 0.0 | 0.0 | 0.00 | 0.00 | 0.00 | 87 | 1013.3 |
| 20260830114516 | 81 | 174 | 0.0 | 0.0 | 0.00 | 0.00 | 0.00 | 87 | 1013.2 |
| 20260830113014 | 81 | 174 | 0.0 | 0.0 | 0.00 | 0.00 | 0.00 | 87 | 1013.2 |
| 20260830111514 | 81 | 174 | 0.0 | 0.0 | 0.00 | 0.00 | 0.00 | 86 | 1013.3 |
| 20260830110013 | 81 | 174 | 0.0 | 0.0 | 0.00 | 0.00 | 0.00 | 86 | 1013.3 |
| 20260830104515 | 81 | 174 | 0.0 | 0.0 | 0.00 | 0.00 | 0.00 | 86 | 1013.3 |
| 20260830103011 | 81 | 174 | 0.0 | 0.0 | 0.00 | 0.00 | 0.00 | 85 | 1013.4 |
| 20260830101510 | 81 | 174 | 0.0 | 0.0 | 0.00 | 0.00 | 0.00 | 85 | 1013.3 |
| 20260830100024 | 81 | 174 | 0.0 | 0.0 | 0.00 | 0.00 | 0.00 | 85 | 1013.4 |
| 20260830094509 | 82 | 174 | 0.0 | 0.0 | 0.00 | 0.00 | 0.00 | 85 | 1013.3 |
| 20260830093007 | 82 | 191 | 0.0 | 3.0 | 0.00 | 0.00 | 0.00 | 84 | 1013.3 |
| 20260830091505 | 82 | 203 | 0.0 | 3.0 | 0.00 | 0.00 | 0.00 | 84 | 1013.5 |
| 20260830090004 | 82 | 192 | 0.0 | 3.0 | 0.00 | 0.00 | 0.00 | 84 | 1013.6 |
| 20260830084503 | 82 | 174 | 0.0 | 4.0 | 0.00 | 0.00 | 0.00 | 84 | 1013.7 |
| 20260830083104 | 82 | 161 | 0.0 | 5.0 | 0.00 | 0.00 | 0.00 | 83 | 1013.8 |